Elkins, WV

6:44 AM EDT on July 26, 2017 (GMT -0400)
Elkins-Randolph County

Weather History for KEKN - August, 2013

Change the Weather History Date:

Saturday, August 10, 2013

  Actual Average Record
Temperature  
Mean Temperature 72 °F 70 °F  
Max Temperature 81 °F 81 °F 95 °F (1911)
Min Temperature 63 °F 59 °F 46 °F (1999)
Degree Days  
Heating Degree Days 0 0  
Month to date heating degree days 3 0  
Since 1 June heating degree days 19 67  
Since 1 July heating degree days 7 12  
Cooling Degree Days 7 5  
Month to date cooling degree days 49 50  
Year to date cooling degree days 379 331  
Since 1 June cooling degree days 354 308  
Growing Degree Days 22 (Base 50)    
Moisture  
Dew Point 66 °F    
Average Humidity 76    
Maximum Humidity 97    
Minimum Humidity 54    
Precipitation  
Precipitation 0.10 in 0.13 in 2.68 in (1998)
Month to date precipitation 1.89 1.35  
Year to date precipitation 26.77 30.32  
Snow  
Snow 0.00 in - - ()
Month to date snowfall 0.0  
Since 1 September snowfall 77.5  
Snow Depth 0.00 in    
Sea Level Pressure  
Sea Level Pressure 30.12 in    
Wind  
Wind Speed 3 mph (NW)    
Max Wind Speed 12 mph    
Max Gust Speed 16 mph    
Visibility 10 miles    
Events Rain    
T = Trace of Precipitation, MM = Missing Value Source: NWS Daily Summary

Daily Weather History Graph

Daily Weather History Graph

Search for Another Location

Airport or City:

Trip Planner

Search our weather history database for the weather conditions in past years. The results will help you decide how hot, cold, wet, or windy it might be!

Date:

Astronomy

Aug. 10, 2013 Rise Set
Actual Time 6:28 AM EDT 8:20 PM EDT
Civil Twilight 5:59 AM EDT 8:48 PM EDT
Nautical Twilight 5:24 AM EDT 9:23 PM EDT
Astronomical Twilight 4:47 AM EDT 10:01 PM EDT
Moon 10:10 AM EDT (8/10) 10:03 PM EDT (8/10)
Length of Visible Light 14h 49m
Length of Day
13h 51m
Waxing Crescent, 14% of the Moon is Illuminated
Aug 10
Waxing Crescent
Aug 14
First Quarter
Aug 20
Full
Aug 28
Last Quarter
Sep 5
New

Hourly Weather History & Observations

Time (EDT) Temp. Heat Index Dew Point Humidity Pressure Visibility Wind Dir Wind Speed Gust Speed Precip Events Conditions
12:51 AM 70.0 °F - 68.0 °F 93% 30.07 in 10.0 mi Calm Calm - N/A   Overcast
1:43 AM 69.8 °F - 68.0 °F 94% 30.10 in 10.0 mi Calm Calm - N/A   Overcast
1:51 AM 70.0 °F - 68.0 °F 93% 30.07 in 10.0 mi Calm Calm - N/A   Overcast
2:51 AM 70.0 °F - 68.0 °F 93% 30.06 in 10.0 mi Calm Calm - N/A   Overcast
3:51 AM 70.0 °F - 68.0 °F 93% 30.06 in 10.0 mi Calm Calm - N/A   Overcast
4:51 AM 70.0 °F - 66.9 °F 90% 30.07 in 10.0 mi Calm Calm - N/A   Overcast
5:51 AM 69.1 °F - 66.9 °F 93% 30.07 in 10.0 mi Calm Calm - 0.00 in   Overcast
6:08 AM 69.8 °F - 66.2 °F 88% 30.11 in 10.0 mi Calm Calm - N/A   Overcast
6:51 AM 69.1 °F - 66.9 °F 93% 30.09 in 10.0 mi Calm Calm - 0.02 in Rain Light Rain
7:00 AM 69.8 °F - 66.2 °F 88% 30.12 in 10.0 mi Calm Calm - 0.00 in Rain Light Rain
7:14 AM 69.8 °F - 66.2 °F 88% 30.13 in 8.0 mi Calm Calm - 0.01 in Rain Light Rain
7:22 AM 69.8 °F - 66.2 °F 88% 30.13 in 6.0 mi Calm Calm - 0.01 in Rain Light Rain
7:51 AM 69.1 °F - 66.9 °F 93% 30.10 in 6.0 mi NNW 3.5 mph - 0.04 in Rain Light Rain
8:10 AM 69.8 °F - 66.2 °F 88% 30.14 in 8.0 mi Calm Calm - 0.00 in Rain Light Rain
8:18 AM 69.8 °F - 66.2 °F 88% 30.14 in 9.0 mi Calm Calm - 0.00 in Rain Light Rain
8:28 AM 69.8 °F - 66.2 °F 88% 30.14 in 8.0 mi Calm Calm - 0.01 in Rain Light Rain
8:51 AM 69.1 °F - 66.0 °F 90% 30.12 in 9.0 mi WNW 3.5 mph - 0.02 in Rain Light Rain
9:31 AM 69.8 °F - 66.2 °F 88% 30.15 in 9.0 mi NNW 4.6 mph - 0.00 in Rain Light Rain
9:51 AM 70.0 °F - 66.0 °F 87% 30.13 in 10.0 mi NNW 3.5 mph - 0.00 in Rain Light Rain
10:09 AM 69.8 °F - 66.2 °F 88% 30.15 in 10.0 mi Calm Calm - 0.01 in Rain Light Rain
10:27 AM 69.8 °F - 66.2 °F 88% 30.15 in 10.0 mi Calm Calm - 0.01 in Rain Light Rain
10:34 AM 69.8 °F - 66.2 °F 88% 30.15 in 10.0 mi Calm Calm - 0.02 in Rain Light Rain
10:51 AM 71.1 °F - 66.9 °F 87% 30.13 in 10.0 mi NW 3.5 mph - 0.02 in   Overcast
11:51 AM 75.0 °F - 66.9 °F 76% 30.12 in 10.0 mi Calm Calm - N/A   Scattered Clouds
12:08 PM 75.2 °F - 66.2 °F 73% 30.16 in 10.0 mi Calm Calm - N/A   Mostly Cloudy
12:15 PM 75.2 °F - 64.4 °F 69% 30.15 in 10.0 mi Calm Calm - N/A   Mostly Cloudy
12:51 PM 75.0 °F - 64.0 °F 69% 30.12 in 10.0 mi WSW 3.5 mph - N/A   Scattered Clouds
1:51 PM 81.0 °F 82.7 °F 64.9 °F 58% 30.11 in 10.0 mi Variable 6.9 mph - N/A   Partly Cloudy
2:51 PM 80.1 °F 81.2 °F 62.1 °F 54% 30.10 in 10.0 mi West 6.9 mph - N/A   Clear
3:51 PM 80.1 °F 81.5 °F 63.0 °F 56% 30.10 in 10.0 mi NW 5.8 mph - N/A   Clear
4:51 PM 79.0 °F - 64.0 °F 60% 30.09 in 10.0 mi NNW 6.9 mph - N/A   Clear
5:51 PM 77.0 °F - 63.0 °F 62% 30.10 in 10.0 mi NW 5.8 mph - N/A   Scattered Clouds
6:51 PM 75.9 °F - 63.0 °F 64% 30.10 in 10.0 mi NNW 4.6 mph - N/A   Clear
7:51 PM 73.0 °F - 64.9 °F 76% 30.12 in 10.0 mi NNW 3.5 mph - N/A   Partly Cloudy
8:51 PM 68.0 °F - 64.0 °F 87% 30.13 in 10.0 mi Calm Calm - N/A   Clear
9:51 PM 66.9 °F - 64.0 °F 90% 30.15 in 10.0 mi Calm Calm - N/A   Partly Cloudy
10:51 PM 64.0 °F - 62.1 °F 93% 30.16 in 10.0 mi Calm Calm - N/A   Partly Cloudy
11:51 PM 63.0 °F - 61.0 °F 93% 30.15 in 10.0 mi Calm Calm - N/A   Clear